全部
Granny Smith Airport (Granny Smith, Western Australia) YGRS 天气
There is no TAF data available at YGRS or any nearby airports.
There is no METAR data available at YGRS. Showing METAR data for YLTN (10 mi N).
LVO近期METAR历史数据(YGRS无数据)
| Date | Time (AWST) | Flight Rules | Wind Dir. | Speed | Type | Height AGL (ft) | Visibility | Temp (°C) | Temp (°F) | Dew Point (°C) | Dew Point (°F) | Rel. Humid. | Pressure | Density Altitude | Remarks |
|---|---|---|---|---|---|---|---|---|---|---|---|---|---|---|---|
| 04-五月 | 01:00 | n/a | Calm | Missing | 10° | 50° | 10° | 50° | 100% | 1025 mb | 814 ft | ||||
| 04-五月 | 00:00 | n/a | Calm | Missing | 10° | 50° | 10° | 50° | 100% | 1025 mb | 814 ft | ||||
| 03-五月 | 23:00 | n/a | 140° | 4 kt | Missing | 12° | 53° | 9° | 48° | 82% | 1025 mb | 1,054 ft | |||
| 03-五月 | 22:00 | n/a | 140° | 5 kt | Missing | 13° | 55° | 9° | 48° | 77% | 1025 mb | 1,174 ft | |||
| 03-五月 | 21:00 | n/a | 140° | 5 kt | Missing | 14° | 57° | 9° | 48° | 72% | 1025 mb | 1,294 ft | |||
| 03-五月 | 20:00 | n/a | 150° | 5 kt | Missing | 14° | 57° | 9° | 48° | 72% | 1024 mb | 1,324 ft | |||
| 03-五月 | 19:00 | n/a | 150° | 6 kt | Missing | 15° | 59° | 8° | 46° | 63% | 1024 mb | 1,444 ft | |||
| 03-五月 | 18:00 | n/a | 160° | 6 kt | Missing | 16° | 60° | 8° | 46° | 59% | 1023 mb | 1,593 ft | |||
| 03-五月 | 17:00 | n/a | 180° | 9 kt | Missing | 17° | 62° | 7° | 44° | 52% | 1023 mb | 1,713 ft | |||
| 03-五月 | 16:00 | n/a | 180° | 9 kt | Missing | 18° | 64° | 8° | 46° | 52% | 1023 mb | 1,833 ft | |||
| 03-五月 | 15:00 | n/a | 170° | 10 kt | Missing | 18° | 64° | 7° | 44° | 49% | 1022 mb | 1,863 ft | |||
| 03-五月 | 14:00 | n/a | 160° | 8 kt | Missing | 18° | 64° | 7° | 44° | 49% | 1023 mb | 1,833 ft | |||
| 03-五月 | 13:00 | n/a | 190° | 9 kt | Missing | 17° | 62° | 8° | 46° | 55% | 1023 mb | 1,713 ft | |||
| 03-五月 | 12:00 | n/a | 180° | 9 kt | Missing | 17° | 62° | 8° | 46° | 55% | 1024 mb | 1,684 ft | |||
| 03-五月 | 11:00 | n/a | 170° | 9 kt | Missing | 16° | 60° | 8° | 46° | 59% | 1025 mb | 1,534 ft | |||
| 03-五月 | 10:00 | n/a | 160° | 12 kt | Missing | 15° | 59° | 9° | 48° | 67% | 1025 mb | 1,414 ft | |||
| 03-五月 | 09:00 | n/a | 150° | 11 kt | Missing | 13° | 55° | 9° | 48° | 77% | 1025 mb | 1,174 ft | |||
| 03-五月 | 08:00 | n/a | 150° | 8 kt | Missing | 11° | 51° | 9° | 48° | 87% | 1025 mb | 934 ft | |||
| 03-五月 | 07:00 | n/a | 160° | 4 kt | Missing | 8° | 46° | 8° | 46° | 100% | 1024 mb | 604 ft | |||
| 03-五月 | 06:00 | n/a | Calm | Missing | 7° | 44° | 7° | 44° | 100% | 1024 mb | 484 ft | ||||
| 03-五月 | 05:00 | n/a | 160° | 6 kt | Missing | 8° | 46° | 8° | 46° | 100% | 1023 mb | 633 ft | |||
| 03-五月 | 04:00 | n/a | 140° | 4 kt | Missing | 8° | 46° | 8° | 46° | 100% | 1023 mb | 633 ft | |||
| 03-五月 | 03:00 | n/a | 110° | 3 kt | Missing | 7° | 44° | 7° | 44° | 100% | 1023 mb | 513 ft | |||
| 03-五月 | 02:00 | n/a | 120° | 3 kt | Missing | 8° | 46° | 8° | 46° | 100% | 1023 mb | 633 ft |
登录
| 您的浏览器不支持. 升级您的浏览器 |
